User: anonymous   Login
Location: Unspecified
(29.9680°N, 0.0000°E)
Time: 11:29:00
(UTC+00:00)
Language:

Courier 1B - Orbit

View from above orbital plane
View from above orbital plane
View from above satellite
View from above satellite

Ground track
Ground track

The orbit data is extracted from the following two-line orbital elements,

1    58U 60013A   19176.13310898  .00000082  00000-0 -37680-5 0  9990
2    58  28.3276 112.4734 0164884 342.7090  16.7890 13.46317732890826
Epoch (UTC): 25 June 2019 03:11:40
Eccentricity: 0.0164884
inclination: 28.3276°
perigee height: 963 km
apogee height: 1209 km
right ascension of ascending node: 112.4734°
argument of perigee: 342.7090°
revolutions per day: 13.46317732
mean anomaly at epoch: 16.7890°
orbit number at epoch: 89082

The dashed part of the orbit path shows where the satellite is in the earth's shadow,  

DLR